Location: Beccas
(43.4309°N, 0.1528°E)
Time: 00:50:09
(UTC+00:00)

Cosmos 2227 Rocket - Pass Details

Date: 15 October 2021
Orbit: 839 x 845 km, 71.0° (Epoch: 02 December)

Event Time Altitude Azimuth Distance (km) Brightness Sun altitude
Rises 17:57:36 0° 334° (NNW) 3,413 5.7 -8.3°
Reaches altitude 10° 18:00:04 10° 334° (NNW) 2,474 4.9 -8.7°
Maximum altitude 18:05:45 86° 247° (WSW) 851 2.3 -9.8°
Drops below altitude 10° 18:11:24 10° 159° (SSE) 2,455 4.4 -10.8°
Sets 18:13:50 0° 159° (SSE) 3,385 5.1 -11.2°
